Powrót do katalogu

STARLINK-38092

AktywnyŁącznośćVLEO
NORAD 100012·PAYLOAD·🇺🇸 United States

Wystrzelony Jul 14, 2026 z Vandenberg Space Force Base

Loading…

Następne Przeloty (najbliższe 24 godziny)

TLE

ŚwieżeSource: Space-Track

Epoka: Sep 14, 2026, 14:47 UTC

1 A0012U 26160M   26257.61650466 -.00559989  00000-0 -39572-2 0  9999
2 A0012  70.0001 211.6479 0004002 255.2010 104.8745 15.75277855 11063

Śledź STARLINK-38092 w czasie rzeczywistym z AllMySat

Download on the App Store